Weather History for RJCC - October, 2013

Change the Weather History Date:

Thursday, October 17, 2013

  Actual Average Record
Temperature  
Mean Temperature 45 °F -  
Max Temperature 55 °F 51 °F 66 °F (2005)
Min Temperature 35 °F 32 °F 30 °F (2000)
Degree Days  
Heating Degree Days 20    
Moisture  
Dew Point 34 °F    
Average Humidity 73    
Maximum Humidity 100    
Minimum Humidity 33    
Precipitation  
Precipitation 0.00 in - - ()
Sea Level Pressure  
Sea Level Pressure 30.15 in    
Wind  
Wind Speed 5 mph ()    
Max Wind Speed 13 mph    
Max Gust Speed -    
Visibility 6.2 miles    
Events Rain    
Averages and records for this station are not official NWS values.
T = Trace of Precipitation, MM = Missing Value Source: Averaged Metar Reports

Daily Weather History Graph

Daily Weather History Graph

Search for Another Location

Airport or City:

Trip Planner

Search our weather history database for the weather conditions in past years. The results will help you decide how hot, cold, wet, or windy it might be!

Date:

Astronomy

Oct. 17, 2013 Rise Set
Actual Time 5:48 AM JST 4:48 PM JST
Civil Twilight 5:19 AM JST 5:16 PM JST
Nautical Twilight 4:47 AM JST 5:49 PM JST
Astronomical Twilight 4:14 AM JST 6:22 PM JST
Moon 3:41 PM JST (10/17) 3:36 AM JST (10/17)
Length of Visible Light 11h 56m
Length of Day
10h 59m
Waxing Gibbous, 96% of the Moon is Illuminated
Oct 17
Waxing Gibbous
Oct 19
Full
Oct 27
Last Quarter
Nov 3
New
Nov 10
First Quarter

Hourly Weather History & Observations

Time (JST) Temp. Windchill Dew Point Humidity Pressure Visibility Wind Dir Wind Speed Gust Speed Precip Events Conditions
12:00 AM 39.2 °F 33.6 °F 33.8 °F 81% 29.89 in 6.2 mi NNW 8.1 mph - N/A   Scattered Clouds
12:30 AM 39.2 °F 32.0 °F 33.8 °F 81% 29.92 in 6.2 mi NNW 11.5 mph - N/A   Mostly Cloudy
1:00 AM 39.2 °F 33.6 °F 33.8 °F 81% 29.95 in 6.2 mi WNW 8.1 mph - N/A   Scattered Clouds
1:30 AM 39.2 °F 33.6 °F 33.8 °F 81% 29.98 in 6.2 mi WNW 8.1 mph - N/A   Scattered Clouds
2:00 AM 37.4 °F 33.8 °F 33.8 °F 87% 29.98 in 6.2 mi NW 4.6 mph - N/A   Scattered Clouds
2:30 AM 37.4 °F 33.8 °F 35.6 °F 93% 29.98 in 6.2 mi NW 4.6 mph - N/A Rain Light Rain Showers
3:00 AM 35.6 °F 31.7 °F 33.8 °F 93% 30.01 in 6.2 mi WSW 4.6 mph - N/A   Scattered Clouds
3:30 AM 37.4 °F 33.8 °F 35.6 °F 93% 30.04 in 6.2 mi WNW 4.6 mph - N/A Rain Light Rain Showers
4:00 AM 37.4 °F - 35.6 °F 93% 30.04 in 6.2 mi Calm Calm - N/A   Mostly Cloudy
4:30 AM 37.4 °F - 35.6 °F 93% 30.04 in 6.2 mi North 1.2 mph - N/A Rain Light Rain Showers
5:00 AM 35.6 °F - 35.6 °F 100% 30.06 in 6.2 mi SW 2.3 mph - N/A   Mostly Cloudy
5:30 AM 35.6 °F - 35.6 °F 100% 30.09 in 6.2 mi Calm Calm - N/A Rain Light Rain Showers
6:00 AM 35.6 °F 32.8 °F 35.6 °F 100% 30.09 in 6.2 mi NE 3.5 mph - N/A Rain Light Rain Showers
6:30 AM 35.6 °F 32.8 °F 35.6 °F 100% 30.12 in 6.2 mi SSW 3.5 mph - N/A   Mostly Cloudy
7:00 AM 37.4 °F - 37.4 °F 100% 30.12 in 6.2 mi Variable 1.2 mph - N/A Rain Light Rain Showers
7:30 AM 39.2 °F 37.0 °F 39.2 °F 100% 30.12 in 6.2 mi East 3.5 mph - N/A   Scattered Clouds
8:00 AM 41.0 °F 39.0 °F 39.2 °F 93% 30.15 in 6.2 mi SSE 3.5 mph - N/A   Scattered Clouds
8:30 AM 42.8 °F - 39.2 °F 87% 30.15 in 6.2 mi Variable 2.3 mph - N/A   Scattered Clouds
9:00 AM 44.6 °F - 37.4 °F 76% 30.15 in 6.2 mi Variable 1.2 mph - N/A   Partly Cloudy
9:30 AM 46.4 °F - 37.4 °F 71% 30.15 in 6.2 mi Variable 1.2 mph - N/A   Scattered Clouds
10:00 AM 48.2 °F - 37.4 °F 66% 30.15 in 6.2 mi East 3.5 mph - N/A   Scattered Clouds
10:30 AM 48.2 °F - 37.4 °F 66% 30.15 in 6.2 mi Variable 2.3 mph - N/A   Scattered Clouds
11:00 AM 48.2 °F - 37.4 °F 66% 30.18 in 6.2 mi ENE 3.5 mph - N/A Rain Light Small Hail Showers
11:30 AM 48.2 °F - 37.4 °F 66% 30.15 in 6.2 mi SE 5.8 mph - N/A   Mostly Cloudy
12:00 PM 50.0 °F - 39.2 °F 66% 30.15 in 6.2 mi SE 6.9 mph - N/A   Scattered Clouds
12:30 PM 51.8 °F - 37.4 °F 58% 30.15 in 6.2 mi Variable 2.3 mph - N/A   Scattered Clouds
1:00 PM 51.8 °F - 35.6 °F 54% 30.15 in 6.2 mi Variable 4.6 mph - N/A   Scattered Clouds
1:28 PM 55.4 °F - 28.4 °F 36% 30.15 in 6.2 mi West 11.5 mph - N/A   Partly Cloudy
1:30 PM 53.6 °F - 28.4 °F 38% 30.15 in 6.2 mi WNW 11.5 mph - N/A   Partly Cloudy
2:00 PM 55.4 °F - 30.2 °F 38% 30.15 in 6.2 mi West 11.5 mph - N/A   Scattered Clouds
2:30 PM 53.6 °F - 28.4 °F 38% 30.15 in 6.2 mi WNW 12.7 mph - N/A   Partly Cloudy
3:00 PM 53.6 °F - 30.2 °F 41% 30.18 in 6.2 mi WNW 10.4 mph - N/A   Partly Cloudy
3:30 PM 53.6 °F - 24.8 °F 33% 30.18 in 6.2 mi West 8.1 mph - N/A   Partly Cloudy
4:00 PM 51.8 °F - 26.6 °F 38% 30.18 in 6.2 mi WNW 11.5 mph - N/A   Partly Cloudy
4:30 PM 48.2 °F - 28.4 °F 46% 30.21 in 6.2 mi WNW 9.2 mph - N/A   Partly Cloudy
5:00 PM 46.4 °F 43.5 °F 30.2 °F 53% 30.21 in 6.2 mi West 5.8 mph - N/A   Partly Cloudy
5:30 PM 44.6 °F 40.2 °F 30.2 °F 57% 30.24 in 6.2 mi WNW 8.1 mph - N/A   Partly Cloudy
6:00 PM 42.8 °F 40.1 °F 32.0 °F 66% 30.24 in 6.2 mi WSW 4.6 mph - N/A   Mostly Cloudy
6:30 PM 42.8 °F 38.0 °F 30.2 °F 61% 30.24 in 6.2 mi West 8.1 mph - N/A   Mostly Cloudy
7:00 PM 41.0 °F 38.0 °F 32.0 °F 70% 30.27 in 6.2 mi Variable 4.6 mph - N/A   Mostly Cloudy
7:30 PM 41.0 °F - 32.0 °F 70% 30.27 in 6.2 mi Variable 2.3 mph - N/A   Mostly Cloudy
8:00 PM 41.0 °F - 33.8 °F 76% 30.27 in 6.2 mi Variable 2.3 mph - N/A   Mostly Cloudy
8:30 PM 41.0 °F - 33.8 °F 76% 30.30 in 6.2 mi Variable 2.3 mph - N/A   Mostly Cloudy
9:00 PM 41.0 °F 39.0 °F 33.8 °F 76% 30.30 in 6.2 mi WSW 3.5 mph - N/A   Mostly Cloudy
9:30 PM 39.2 °F - 35.6 °F 87% 30.30 in 6.2 mi Variable 1.2 mph - N/A   Mostly Cloudy
10:00 PM 39.2 °F 37.0 °F 33.8 °F 81% 30.30 in 6.2 mi WSW 3.5 mph - N/A   Mostly Cloudy
10:30 PM 39.2 °F 37.0 °F 33.8 °F 81% 30.30 in 6.2 mi SE 3.5 mph - N/A   Mostly Cloudy
11:00 PM 37.4 °F - 33.8 °F 87% 30.30 in 6.2 mi Variable 2.3 mph - N/A   Mostly Cloudy
11:30 PM 37.4 °F 33.8 °F 35.6 °F 93% 30.30 in 6.2 mi South 4.6 mph - N/A   Mostly Cloudy